Regional Weather Roundup
Issued by NWS

Home | Current Version | Previous Version | Text Only | Print | Product List | Glossary On
Versions: 1 2 3 4 5 6 7 8 9 10 11 12 13 14 15 16 17 18 19 20 21 22 23 24 25 26 27 28 29 30 31 32 33 34 35 36 37 38 39 40 41 42 43 44 45 46 47 48 49 50
000
ASUS44 KBMX 010710
RWRAL

ALABAMA REGIONAL WEATHER ROUNDUP
NATIONAL WEATHER SERVICE BIRMINGHAM AL
200 AM CDT TUE SEP 01 2015

NOTE: "FAIR" INDICATES FEW OR NO CLOUDS BELOW 12,000 FEET
WITH NO SIGNIFICANT WEATHER AND/OR OBSTRUCTIONS TO VISIBILITY.

THE REMARK "TC" DENOTES TEMPERATURE IN DEGREES CELSIUS.

ALZ001>011-014-016>018-020-010800-
NORTH ALABAMA

CITY           SKY/WX    TMP DP  RH WIND       PRES   REMARKS
MUSCLE SHOALS  CLEAR     67  64  90 CALM      30.10F FOG
HUNTSVILLE     CLEAR     71  67  87 CALM      30.10S
DECATUR        CLEAR     66  66 100 MISG      30.11S
HALEYVILLE     FAIR      66  66 100 CALM      30.14R FOG
GADSDEN        CLEAR     66  63  88 CALM      30.09F
$$

ALZ012-013-022-023-030>036-040>044-010800-
WEST CENTRAL ALABAMA

CITY           SKY/WX    TMP DP  RH WIND       PRES   REMARKS
TUSCALOOSA     CLEAR     71  69  93 NE3       30.07F
$$

ALZ015-024>027-033>036-040>044-010800-
CENTRAL ALABAMA

CITY           SKY/WX    TMP DP  RH WIND       PRES   REMARKS
BIRMINGHAM     CLEAR     71  69  93 CALM      30.11F
MONTGOMERY     CLEAR     73  69  87 CALM      30.06F
SHELBY CO ARPT CLEAR     72  69  90 CALM      30.09S
MAXWELL AFB    CLEAR     73  71  93 N3        30.05F
GREENVILLE     FAIR      72  68  87 CALM      30.06F
$$

ALZ019-021-028-029-037-038-045>048-010800-
EAST CENTRAL ALABAMA

CITY           SKY/WX    TMP DP  RH WIND       PRES   REMARKS
ANNISTON       PTCLDY    70  68  93 CALM      30.11S
ALEXANDER CITY PTCLDY    74  73  94 N3        30.09F
AUBURN         NOT AVBL
$$

ALZ051>064-010800-
SOUTHWEST ALABAMA

CITY           SKY/WX    TMP DP  RH WIND       PRES   REMARKS
MOBILE         PTCLDY    71  70  96 CALM      30.05F
BROOKLEY FIELD CLEAR     74  71  91 NW3       30.06S
EVERGREEN      CLEAR     71  70  96 CALM      30.05F FOG
$$

ALZ049-050-065>069-010800-
SOUTHEAST ALABAMA

CITY           SKY/WX    TMP DP  RH WIND       PRES   REMARKS
DOTHAN         CLEAR     72  70  93 NE3       30.08F
OZARK            N/A     71  69  93 E1        30.05F
TROY           CLEAR     70  69  97 CALM      30.07F
EUFAULA        FAIR      72  70  93 CALM      30.05F
$$


USA.gov is the U.S. government's official web portal to all federal, state and local government web resources and services.